Regional Weather Roundup
Issued by NWS Sioux Falls, SD

Home | Current Version | Previous Version | Text Only | Print | Product List | Glossary On
Versions: 1 2 3 4 5 6 7 8 9 10 11 12 13 14 15 16 17 18 19 20 21 22 23 24 25 26 27 28 29 30 31 32 33 34 35 36 37 38 39 40 41 42 43 44 45 46 47 48 49 50
000
ASUS43 KFSD 270510
RWRFSD

WEATHER ROUNDUP FOR SE SOUTH DAKOTA/SW MINNESOTA/NW IOWA
NATIONAL WEATHER SERVICE SIOUX FALLS SD
1200 AM CDT WED JUL 27 2016

NOTE: "FAIR" INDICATES FEW OR NO CLOUDS BELOW 12,000 FEET WITH NO
SIGNIFICANT WEATHER AND OR OBSTRUCTIONS TO VISIBILITY.


SDZ038>040-050-052>070-270600-
SOUTHEAST SOUTH DAKOTA

CITY           SKY/WX    TMP DP  RH WIND       PRES   REMARKS
BROOKINGS      MOCLDY    72  68  87 SE8       29.97F
CHAMBERLAIN    CLOUDY    71  64  78 NW5       29.95R
HURON          CLOUDY    77  66  68 SE10      29.92R
MADISON        FAIR      72  72 100 S7        29.99R
MITCHELL       MOCLDY    80  66  62 VRB5      29.94R
SIOUX FALLS    CLOUDY    76  64  66 S12       29.97F
WINNER         LGT RAIN  69  61  75 SW21G31   29.99R
YANKTON        CLOUDY    75  64  69 S7        29.98S
$$

MNZ071-072-080-081-089-090-097-098-270600-
SOUTHWEST MINNESOTA

CITY           SKY/WX    TMP DP  RH WIND       PRES   REMARKS
FAIRMONT       PTCLDY    72  66  83 S7        30.01S
JACKSON        CLOUDY    72  64  78 S7        30.03S
LUVERNE        CLOUDY    68  64  88 CALM      30.01R
MARSHALL       CLOUDY    73  69  87 S3        29.99S
MONTEVIDEO     CLOUDY    72  66  83 CALM      30.00S
REDWOOD FALLS  PTCLDY    74  69  85 SW3       29.99R
TRACY          CLOUDY    73  69  88 SE3       30.00F
WINDOM         CLOUDY    73  66  78 S3        30.02R
WORTHINGTON    CLOUDY    72  67  84 S10       30.02F
$$

IAZ001>003-012>014-020>022-031-032-NEZ013-014-SDZ071-270600-
NORTHWEST IOWA

CITY           SKY/WX    TMP DP  RH WIND       PRES   REMARKS
CHEROKEE       MOCLDY    69  67  93 S3        30.02S
DENISON        PTCLDY    68  66  94 SE5       30.01S
ESTHERVILLE    CLEAR     68  67  96 S6        30.02S
LE MARS        PTCLDY    72  68  88 SE7       30.00F
SHELDON        PTCLDY    72  68  88 S9        29.99F
SIOUX CITY     MOCLDY    73  67  81 S8        29.99F
SPENCER        CLOUDY    68  65  90 S6        30.02F
STORM LAKE     CLEAR     68  66  94 S8        30.04F
$$

ABBREVIATIONS USED IN REMARKS
   TC - TEMPERATURE IN CELSIUS
  WCI - WIND CHILL INDEX
   HX - HEAT INDEX
  VSB - VISIBILITY





USA.gov is the U.S. government's official web portal to all federal, state and local government web resources and services.